Wind_Speed
4 3 2 1 2 2 2 2 2 3 3 2 1 2 2 3 4 5 5 5 5 5 6 6 7 7 7 7 7 8 8 8 8 9 9 8 8 8 7 7 8 8 8
4 4 3 3 3 3 2 2 2 2 2 3 2 2 2 3 4 4 5 5 5 6 6 7 7 7 7 8 8 9 9 9 9 8 8 9 9 9 9 8 8 8 8
5 4 4 4 4 4 3 3 3 3 2 2 2 3 3 4 4 5 5 6 6 7 7 8 8 8 8 9 10 10 10 9 9 9 9 9 9 10 11 10 9 8 8
5 5 5 5 4 4 4 3 3 3 2 3 3 4 5 5 5 5 5 6 6 7 7 8 8 8 8 9 9 10 10 10 10 10 10 10 11 11 11 10 10 10 10
7 6 6 6 5 5 5 4 3 3 3 4 5 5 5 5 5 6 6 7 7 8 8 8 8 9 9 9 10 11 11 11 11 12 11 11 12 12 11 11 11 11 10
7 7 7 7 6 6 6 5 4 4 5 5 5 5 6 6 7 7 8 8 8 9 9 9 9 10 10 10 11 11 11 11 12 12 12 12 12 12 12 11 11 10 10
7 7 7 7 7 6 6 6 5 5 6 6 6 7 7 8 8 8 9 9 9 10 10 10 10 10 10 11 11 12 12 12 12 12 12 12 12 12 12 11 11 10 11
8 8 8 8 8 7 7 7 7 7 7 8 8 8 8 9 10 10 10 10 10 11 11 11 11 10 11 11 12 12 13 13 13 13 13 13 12 12 12 12 11 11 11
8 8 9 9 9 9 8 8 8 8 8 8 8 9 9 10 10 10 10 10 11 11 11 11 11 11 12 12 13 13 13 13 14 14 14 14 13 12 12 12 12 12 12
8 9 9 9 9 9 9 9 9 10 10 9 10 10 10 11 11 11 11 12 12 12 12 12 12 12 12 12 12 13 13 14 14 14 14 15 15 14 13 12 13 13 13
9 9 9 10 10 10 10 10 10 10 11 11 11 12 12 12 12 12 12 13 13 13 13 13 12 12 13 13 13 13 14 15 15 14 14 15 15 15 14 13 13 13 13
10 10 11 11 12 12 11 11 11 12 12 12 12 13 14 13 13 13 14 14 14 14 14 13 13 13 13 14 14 15 15 15 15 15 15 15 16 15 15 14 14 14 14
11 12 12 12 12 12 13 12 13 13 13 14 14 14 15 15 14 15 15 15 16 15 15 15 15 15 15 16 16 16 16 16 15 15 15 15 15 15 16 14 14 14 15
12 12 13 13 13 13 14 14 14 15 15 16 16 16 16 16 16 16 16 17 17 17 17 17 17 17 17 17 17 17 17 16 17 16 16 15 15 16 16 15 15 15 16
13 13 13 14 14 15 15 16 16 16 17 17 17 17 18 18 18 18 18 18 19 18 18 18 19 19 19 18 18 19 18 18 18 18 18 18 17 16 16 16 16 16 16
14 14 15 16 17 17 17 18 18 18 18 18 18 19 19 20 19 19 19 20 20 19 19 20 20 20 20 19 20 20 20 20 19 19 19 19 19 18 18 17 18 18 18
15 15 17 17 18 18 19 20 20 20 19 19 19 19 19 20 20 20 20 19 20 20 21 21 21 21 21 21 21 21 21 21 20 20 20 19 19 19 18 19 19 19 19
16 17 17 18 19 19 20 20 20 19 19 19 19 20 20 21 21 21 20 20 21 22 22 21 22 22 22 22 21 21 21 22 21 21 21 21 21 21 21 21 20 20 20
18 18 18 20 20 20 20 21 20 19 19 19 20 20 20 21 22 22 22 22 22 22 23 22 23 23 22 22 22 22 22 22 22 22 22 22 22 22 22 22 21 21 21
19 20 20 21 21 21 21 21 21 21 20 21 21 21 21 22 22 22 23 23 23 23 23 23 23 22 23 22 23 22 22 23 23 23 23 23 23 23 23 23 23 23 23
20 21 21 22 22 22 22 22 22 21 21 22 23 23 23 22 23 23 23 23 23 23 22 23 23 22 22 22 23 24 23 23 23 24 24 23 24 24 25 25 25 25 24
22 22 22 22 22 22 23 23 23 23 23 23 23 23 24 24 24 23 23 23 23 22 23 23 23 23 23 23 23 24 24 23 24 25 25 25 25 25 25 25 25 25 25
24 23 23 22 22 23 24 24 24 24 24 24 24 23 23 23 24 23 24 23 23 23 23 23 23 23 24 24 24 24 24 25 25 25 25 25 25 25 25 25 26 26 26
25 25 24 24 24 24 25 25 25 24 25 25 24 24 24 24 23 23 23 23 23 24 24 24 24 24 25 25 25 25 25 26 26 26 26 26 25 25 26 26 26 26 26
27 26 26 26 26 26 26 26 26 26 26 25 25 24 24 24 23 24 24 24 24 24 24 25 25 25 25 25 25 25 26 27 27 27 27 27 27 27 26 27 27 26 27
27 27 27 27 27 27 27 27 27 27 26 26 26 26 26 25 24 24 24 24 24 25 25 26 26 26 26 26 26 26 26 27 28 28 28 28 28 28 27 27 27 28 28
Wind_Direction
5 358 353 359 358 341 302 284 284 290 294 287 291 308 308 318 313 314 317 326 322 320 319 323 321 316 318 315 314 315 318 315 311 306 300 295 289 292 286 283 272 270 262
1 352 357 3 353 342 332 308 294 302 292 300 305 307 316 319 311 325 323 324 321 316 313 314 318 321 316 318 312 313 310 305 306 301 294 292 289 288 291 288 279 276 269
8 5 360 348 346 350 343 322 299 303 307 298 293 299 319 324 320 320 319 321 318 317 314 313 316 316 317 319 320 319 311 306 306 305 301 297 293 291 290 290 285 281 277
7 359 352 344 341 347 342 338 334 323 310 300 302 304 311 315 318 317 317 320 319 322 318 316 315 311 311 313 316 317 313 310 309 305 301 299 296 295 292 287 285 284 279
8 360 350 348 345 344 344 336 328 320 306 300 297 301 306 311 318 319 314 317 319 321 316 312 312 308 308 309 310 314 313 309 307 306 301 301 300 297 292 289 289 291 282
5 360 353 349 345 340 336 329 319 311 306 296 295 299 303 308 310 313 312 313 315 318 316 311 310 307 308 309 310 312 315 314 312 308 301 301 300 297 293 293 291 289 287
0 355 350 345 340 335 328 324 320 312 310 307 302 299 299 306 310 311 311 312 315 314 309 308 305 307 308 308 308 308 311 312 312 311 305 302 297 294 291 291 287 283 285
356 350 346 343 340 339 332 324 322 316 314 313 305 305 304 305 307 308 306 309 311 310 308 306 307 309 310 308 307 305 306 309 309 308 309 305 301 293 290 286 286 284 281
350 346 344 340 334 330 326 323 324 322 318 317 314 313 312 308 307 307 305 306 307 306 307 309 308 308 310 307 307 304 304 307 310 307 304 304 301 296 290 285 283 283 282
340 339 337 337 334 328 325 323 320 316 316 314 310 312 312 308 308 306 305 304 305 305 307 311 311 311 312 312 311 308 306 306 307 307 303 301 300 293 290 284 281 281 281
335 334 331 328 326 325 322 321 322 319 316 314 310 308 308 305 302 302 303 303 303 303 305 307 307 310 311 310 310 310 307 304 304 306 304 300 298 293 289 285 282 281 279
330 330 327 324 324 323 323 321 318 317 313 312 310 307 307 303 301 300 301 304 304 304 304 304 305 307 307 307 308 308 308 307 304 304 304 303 298 292 289 286 280 277 277
326 325 324 323 322 321 320 318 315 313 311 311 308 306 307 302 297 296 299 301 304 305 303 303 304 305 304 304 305 305 304 304 303 303 302 303 300 295 288 282 279 278 279
325 326 324 322 322 321 318 315 313 311 309 307 307 306 306 303 299 296 297 298 299 300 300 300 300 301 302 301 303 301 302 302 302 302 299 300 300 300 292 283 279 281 280
325 326 324 323 322 321 317 316 315 310 309 307 306 305 304 303 301 299 298 297 298 298 296 298 298 297 298 298 301 300 299 299 299 299 299 298 297 297 293 287 282 282 279
321 322 323 322 320 319 316 315 315 310 307 306 305 303 301 302 301 300 298 297 297 297 298 297 296 297 296 297 298 298 297 295 294 294 295 296 295 294 293 291 288 282 279
317 319 320 320 320 319 317 315 312 308 305 304 303 302 300 300 301 302 300 298 297 297 298 296 295 295 296 296 295 294 294 292 292 294 293 294 293 293 292 291 288 285 282
316 318 318 318 317 316 316 317 314 311 306 305 303 302 300 299 299 299 298 298 297 296 297 297 295 293 294 295 296 295 292 289 289 291 291 293 292 291 291 291 288 285 282
310 310 311 313 313 314 315 316 315 313 310 308 307 305 301 300 297 296 296 297 297 296 297 296 296 293 293 294 294 294 295 291 289 289 291 292 291 289 288 287 287 287 285
308 308 309 311 311 312 313 314 312 312 311 308 307 305 303 302 298 297 296 296 296 296 298 297 297 296 294 294 295 295 296 295 292 289 289 290 290 289 288 285 285 284 284
307 306 305 307 309 310 311 313 312 312 311 308 307 304 303 301 300 299 298 297 296 296 297 297 296 296 296 296 296 295 294 296 295 292 290 290 290 289 288 287 286 285 283
303 304 304 305 306 308 307 308 310 311 312 308 307 304 301 299 301 299 298 298 298 297 297 297 297 297 297 297 298 296 294 293 294 294 294 292 291 291 291 289 288 286 284
298 300 301 303 304 306 305 305 308 310 311 311 310 308 306 305 303 301 300 299 298 297 297 298 298 298 297 297 297 296 294 294 295 296 295 295 293 291 290 289 287 286 285
295 296 296 298 299 302 304 305 305 307 311 310 310 310 309 309 305 304 302 301 300 299 298 297 297 297 297 297 296 295 293 294 294 295 296 296 295 294 290 289 288 284 283
293 292 293 294 297 300 302 303 303 303 305 305 306 307 307 308 307 304 302 301 301 300 299 297 296 295 295 295 296 296 294 294 293 294 294 294 295 295 294 291 288 286 285
291 291 291 293 296 297 299 301 302 302 303 303 304 305 305 304 304 304 303 303 303 301 299 298 297 295 294 293 294 294 293 293 294 294 294 293 293 293 294 292 289 288 288
Height
5895 5894 5894 5895 5896 5896 5896 5896 5896 5897 5897 5897 5897 5898 5898 5899 5899 5899 5898 5898 5898 5898 5897 5897 5896 5895 5895 5894 5894 5893 5893 5892 5892 5891 5890 5890 5890 5889 5889 5889 5889 5889 5889
5895 5895 5895 5895 5895 5895 5895 5895 5896 5896 5896 5896 5897 5897 5897 5898 5898 5897 5897 5897 5897 5897 5896 5896 5895 5894 5894 5893 5893 5892 5891 5891 5890 5889 5888 5888 5888 5888 5887 5887 5887 5887 5887
5896 5896 5896 5896 5895 5895 5895 5895 5895 5896 5896 5896 5896 5897 5897 5896 5896 5896 5896 5896 5896 5895 5895 5894 5894 5893 5893 5892 5891 5890 5890 5889 5888 5888 5887 5886 5886 5886 5885 5885 5885 5885 5885
5897 5897 5897 5896 5896 5895 5895 5895 5895 5895 5896 5896 5897 5896 5896 5896 5896 5895 5895 5895 5895 5894 5893 5893 5892 5892 5891 5890 5890 5889 5888 5887 5886 5886 5885 5885 5884 5884 5883 5882 5882 5882 5882
5898 5898 5897 5897 5896 5896 5895 5895 5895 5895 5896 5895 5896 5896 5895 5895 5895 5894 5894 5894 5893 5893 5892 5891 5891 5890 5889 5888 5888 5887 5886 5885 5885 5884 5883 5883 5882 5881 5881 5880 5880 5880 5879
5899 5898 5898 5897 5896 5896 5895 5895 5895 5895 5895 5894 5894 5895 5894 5894 5893 5893 5893 5892 5891 5891 5890 5889 5889 5888 5887 5886 5886 5885 5884 5883 5882 5881 5880 5880 5879 5879 5878 5878 5877 5877 5877
5899 5899 5898 5897 5896 5896 5895 5895 5894 5894 5894 5893 5893 5893 5893 5892 5892 5891 5891 5890 5890 5889 5888 5888 5887 5886 5885 5884 5883 5882 5881 5880 5879 5878 5878 5877 5876 5876 5875 5874 5874 5874 5873
5900 5899 5898 5897 5896 5895 5895 5894 5894 5894 5894 5893 5892 5892 5892 5892 5890 5890 5889 5888 5888 5887 5886 5886 5885 5884 5883 5882 5881 5880 5879 5878 5877 5876 5874 5874 5873 5872 5871 5871 5870 5870 5870
5900 5899 5898 5897 5896 5895 5895 5894 5893 5893 5893 5892 5891 5891 5890 5890 5889 5888 5887 5886 5885 5884 5883 5883 5882 5881 5881 5880 5878 5877 5876 5875 5874 5873 5872 5870 5869 5868 5868 5867 5867 5867 5867
5900 5899 5898 5897 5896 5895 5894 5893 5892 5892 5892 5891 5890 5889 5889 5888 5887 5886 5885 5884 5883 5882 5881 5880 5880 5879 5878 5877 5875 5874 5873 5872 5871 5870 5869 5867 5866 5865 5864 5864 5863 5863 5863
5899 5898 5897 5896 5895 5894 5893 5892 5891 5891 5890 5889 5888 5888 5887 5885 5885 5884 5883 5882 5881 5880 5879 5878 5877 5876 5875 5874 5873 5871 5870 5869 5868 5866 5865 5863 5862 5861 5860 5860 5860 5860 5860
5898 5897 5896 5895 5894 5893 5892 5891 5890 5889 5888 5887 5886 5885 5884 5883 5882 5881 5880 5879 5878 5877 5876 5875 5874 5873 5872 5871 5870 5868 5867 5865 5864 5863 5861 5859 5858 5857 5856 5855 5855 5855 5855
5897 5895 5894 5893 5892 5891 5890 5889 5888 5887 5886 5884 5883 5882 5881 5879 5878 5877 5877 5876 5875 5874 5873 5871 5870 5869 5868 5867 5866 5865 5863 5862 5860 5859 5858 5856 5854 5853 5852 5851 5851 5851 5851
5895 5894 5892 5891 5890 5889 5888 5887 5885 5884 5883 5881 5880 5879 5877 5876 5875 5874 5873 5872 5871 5870 5869 5868 5866 5865 5864 5863 5861 5860 5859 5858 5856 5855 5854 5852 5851 5849 5848 5847 5847 5847 5847
5893 5891 5890 5889 5888 5886 5885 5883 5882 5881 5879 5878 5876 5875 5874 5873 5871 5870 5869 5868 5866 5865 5865 5863 5862 5861 5859 5858 5856 5855 5854 5853 5852 5851 5849 5848 5847 5846 5845 5844 5843 5842 5842
5890 5889 5888 5886 5885 5883 5881 5880 5878 5877 5875 5874 5872 5871 5870 5869 5867 5866 5865 5863 5862 5861 5860 5858 5857 5855 5853 5852 5851 5849 5848 5848 5847 5845 5844 5843 5842 5841 5840 5839 5838 5838 5837
5888 5886 5885 5883 5881 5880 5878 5876 5874 5872 5870 5869 5868 5867 5865 5864 5862 5861 5859 5858 5857 5855 5854 5853 5851 5850 5848 5847 5846 5844 5843 5841 5841 5840 5839 5838 5837 5836 5835 5834 5833 5833 5832
5884 5883 5881 5880 5878 5876 5874 5872 5869 5867 5865 5864 5863 5862 5860 5859 5858 5856 5854 5853 5851 5850 5848 5847 5846 5844 5843 5841 5840 5838 5837 5836 5835 5834 5833 5832 5831 5830 5829 5828 5827 5826 5826
5881 5879 5877 5876 5874 5872 5870 5868 5865 5863 5861 5859 5858 5857 5855 5854 5852 5850 5849 5847 5845 5844 5842 5841 5839 5838 5837 5835 5834 5832 5831 5830 5829 5828 5827 5826 5825 5824 5823 5822 5821 5820 5819
5877 5875 5873 5872 5870 5868 5866 5864 5861 5858 5857 5855 5853 5852 5850 5848 5846 5844 5843 5841 5839 5838 5836 5834 5833 5831 5830 5829 5827 5826 5825 5824 5823 5821 5820 5819 5818 5817 5816 5815 5814 5813 5813
5873 5871 5869 5867 5865 5863 5861 5859 5857 5854 5853 5851 5849 5846 5844 5842 5840 5838 5837 5835 5833 5831 5829 5828 5826 5825 5824 5822 5821 5819 5819 5817 5816 5815 5814 5812 5811 5810 5809 5808 5807 5806 5805
5868 5866 5864 5863 5861 5858 5856 5854 5852 5850 5848 5846 5843 5841 5839 5836 5834 5832 5830 5829 5827 5825 5823 5822 5820 5819 5817 5816 5814 5813 5812 5811 5810 5808 5807 5805 5804 5803 5801 5800 5799 5798 5797
5862 5861 5859 5857 5855 5853 5851 5849 5847 5845 5843 5841 5838 5835 5833 5831 5829 5827 5825 5823 5821 5819 5817 5816 5814 5813 5811 5809 5808 5807 5805 5804 5803 5801 5799 5798 5796 5795 5794 5793 5791 5790 5789
5856 5855 5853 5852 5850 5848 5846 5844 5841 5839 5838 5835 5833 5831 5828 5826 5823 5821 5819 5817 5815 5813 5811 5810 5808 5807 5805 5803 5802 5800 5799 5797 5795 5793 5792 5790 5789 5787 5786 5784 5783 5782 5781
5850 5848 5847 5845 5843 5841 5839 5837 5835 5834 5832 5830 5827 5825 5823 5820 5818 5815 5813 5811 5809 5807 5805 5803 5802 5800 5798 5796 5795 5793 5791 5790 5788 5786 5784 5783 5781 5779 5778 5776 5775 5773 5772
5843 5841 5840 5838 5836 5835 5833 5831 5829 5827 5825 5824 5822 5819 5817 5814 5812 5809 5807 5805 5803 5801 5799 5797 5795 5793 5791 5789 5787 5785 5784 5782 5780 5779 5777 5775 5773 5771 5770 5768 5766 5764 5763